User: anonymous   Login
Location: Elbart
(49.6135°N, 11.9134°E)
Time: 11:06:19
(UTC+00:00)
Language:

USA 32 - Orbit

View from above orbital plane
View from above orbital plane
View from above satellite
View from above satellite

Ground track
Ground track

The orbit data is extracted from the following two-line orbital elements,

1 19460U 88078A   20169.37193059 0.00000000  00000-0  00000-0 0    09
2 19460  84.9894 305.6881 0004260 296.6574  63.3424 14.33494473    00
Epoch (UTC): 17 June 2020 08:55:34
Eccentricity: 0.0004260
inclination: 84.9894°
perigee height: 777 km
apogee height: 783 km
right ascension of ascending node: 305.6881°
argument of perigee: 296.6574°
revolutions per day: 14.33494473
mean anomaly at epoch: 63.3424°
orbit number at epoch: 0

The dashed part of the orbit path shows where the satellite is in the earth's shadow,  

DLR